"2010-01-21 00:00:00",1610200,5.265,98.9,5.774,1.106,4.084,100.1299,-0.368,0.931,72.65,0,109.6,13.59,0.38,60.9
"2010-01-21 00:00:30",1610201,4.993,98.3,5.792,1.217,4.095,100.1316,-0.364,0.958,72.59,0,109.6,13.59,0.39,60.3
"2010-01-21 00:01:00",1610202,5.157,97.4,5.678,1.17,4.026,100.1325,-0.362,0.898,72.5,0,109.6,13.59,0.39,59.4
"2010-01-21 00:01:30",1610203,4.534,93.9,6.097,1.221,3.235,100.1339,-0.358,0.899,72.52,0,109.6,13.59,0.39,55.9
"2010-01-21 00:02:00",1610204,5.074,95.7,5.875,1.12,4.458,100.1299,-0.368,0.917,72.55,0,109.6,13.59,0.38,57.7
"2010-01-21 00:02:30",1610205,4.278,92.3,6.145,1.188,2.487,100.1214,-0.39,0.709,72.34,0,109.6,13.59,0.36,54.3
"2010-01-21 00:03:00",1610206,5.016,98.4,5.546,1.079,4.514,100.1163,-0.403,0.859,72.56,0,109.6,13.6,0.35,60.4
"2010-01-21 00:03:30",1610207,4.616,97.3,5.765,1.139,4.166,100.1132,-0.411,0.889,72.71,0,109.6,13.6,0.34,59.3
"2010-01-21 00:04:00",1610208,4.916,98.8,5.573,1.07,4.334,100.1042,-0.434,0.878,72.82,0,109.6,13.6,0.32,60.8
"2010-01-21 00:04:30",1610209,4.798,96.5,6.091,1.12,3.671,100.1019,-0.44,0.859,72.92,0,109.6,13.6,0.31,58.5
"2010-01-21 00:05:00",1610210,3.791,92.2,5.47,1.109,2.464,100.1019,-0.44,0.823,72.96,0,109.6,13.6,0.31,54.2
"2010-01-21 00:05:30",1610211,4.013,95.5,6.032,1.187,2.642,100.1019,-0.44,0.687,72.87,0,109.6,13.6,0.31,57.5
"2010-01-21 00:06:00",1610212,4.566,100,5.986,1.087,4.103,100.1019,-0.44,0.838,73.03,0,109.6,13.61,0.31,62.0
"2010-01-21 00:06:30",1610213,4.607,102.8,5.575,1.041,4.426,100.0988,-0.448,0.85,72.98,0,109.6,13.61,0.30,64.8
"2010-01-21 00:07:00",1610214,4.004,100.6,6.094,1.193,3.258,100.0863,-0.479,0.776,72.82,0,109.6,13.61,0.27,62.6
"2010-01-21 00:07:30",1610215,4.104,101.4,6.077,1.198,3.324,100.0804,-0.495,0.81,72.86,0,109.6,13.61,0.26,63.4
"2010-01-21 00:08:00",1610216,3.895,103.2,6.392,1.243,3.36,100.0716,-0.517,0.794,72.94,0,109.6,13.61,0.23,65.2
"2010-01-21 00:08:30",1610217,2.903,96.8,2.116,0.45,1.566,100.0679,-0.526,0.635,72.93,0,109.6,13.61,0.22,58.8
"2010-01-21 00:09:00",1610218,4.445,104,5.745,1.15,4.477,100.0679,-0.526,0.839,73.29,0,109.6,13.61,0.22,66.0
"2010-01-21 00:09:30",1610219,4.43,103.5,5.948,1.12,4.571,100.0679,-0.526,0.81,73.4,0,109.6,13.61,0.22,65.5
"2010-01-21 00:10:00",1610220,4.451,103.6,5.765,1.087,4.164,100.0679,-0.526,0.724,73.4,0,109.6,13.61,0.22,65.6
"2010-01-21 00:10:30",1610221,4.409,104,6.028,1.081,4.244,100.0679,-0.526,0.74,73.46,0,109.6,13.61,0.22,66.0
"2010-01-21 00:11:00",1610222,3.039,97.6,4.287,0.764,1.634,100.0668,-0.529,0.666,73.4,0,109.6,13.61,0.22,59.6
"2010-01-21 00:11:30",1610223,4.266,104.8,5.532,1.206,4.145,100.0617,-0.542,0.692,73.46,0,109.6,13.61,0.21,66.8
"2010-01-21 00:12:00",1610224,4.228,104.3,6.202,1.096,4.276,100.0524,-0.566,0.774,73.68,0,109.6,13.61,0.18,66.3
"2010-01-21 00:12:30",1610225,4.109,104.6,6.069,1.129,4.335,100.047,-0.58,0.737,73.71,0,109.6,13.61,0.17,66.6
"2010-01-21 00:13:00",1610226,3.619,103.9,6.618,1.224,3.474,100.047,-0.58,0.748,73.54,0,109.6,13.61,0.17,65.9
"2010-01-21 00:13:30",1610227,3.812,104.2,6.411,1.206,3.741,100.0385,-0.601,0.7,73.14,0,109.6,13.61,0.15,66.2
"2010-01-21 00:14:00",1610228,2.527,98.5,4.118,0.846,1.673,100.034,-0.613,0.659,72.66,0,109.6,13.61,0.14,60.5
"2010-01-21 00:14:30",1610229,3.042,100.4,6.447,1.189,2.977,100.0342,-0.612,0.623,72.21,0,109.6,13.61,0.14,62.4
"2010-01-21 00:15:00",1610230,3.907,103.8,6.362,1.008,4.457,100.034,-0.613,0.655,71.85,0,109.6,13.61,0.14,65.8
"2010-01-21 00:15:30",1610231,4.336,105.1,3.885,0.713,5.638,100.0342,-0.612,0.732,71.49,0,109.6,13.61,0.14,67.1
"2010-01-21 00:16:00",1610232,3.902,101.6,5.506,1.084,4.54,100.0359,-0.608,0.662,71.1,0,109.6,13.61,0.14,63.6
"2010-01-21 00:16:30",1610233,2.631,93.7,4.209,0.938,1.044,100.0385,-0.601,0.483,70.52,0,109.6,13.61,0.15,55.7
"2010-01-21 00:17:00",1610234,3.178,98,6.074,1.208,2.754,100.0345,-0.612,0.601,70.28,0,109.6,13.61,0.14,60.0
"2010-01-21 00:17:30",1610235,2.227,93.9,3.216,0.503,1.673,100.0294,-0.625,0.596,70.13,0,109.6,13.61,0.13,55.9
"2010-01-21 00:18:00",1610236,3.513,100.4,6.194,1.194,4.196,100.0263,-0.632,0.663,70.09,0,109.6,13.61,0.12,62.4
"2010-01-21 00:18:30",1610237,3.858,103.8,4.435,1.024,5.552,100.0218,-0.644,0.749,70.03,0,109.6,13.61,0.11,65.8
"2010-01-21 00:19:00",1610238,3.643,103,5.783,1.133,4.81,100.0201,-0.648,0.656,69.75,0,109.6,13.61,0.10,65.0
"2010-01-21 00:19:30",1610239,2.438,97.6,5.465,0.995,1.89,100.0181,-0.653,0.595,69.56,0,109.6,13.62,0.10,59.6
"2010-01-21 00:20:00",1610240,2.897,101.2,6.77,1.219,2.188,100.0204,-0.648,0.589,69.5,0,109.6,13.62,0.10,63.2
"2010-01-21 00:20:30",1610241,2.414,100.3,5.854,0.985,2.136,100.0232,-0.64,0.557,69.54,0,109.6,13.62,0.11,62.3
"2010-01-21 00:21:00",1610242,2.773,103.2,6.233,1.124,3.03,100.0227,-0.642,0.574,69.81,0,109.6,13.62,0.11,65.2
"2010-01-21 00:21:30",1610243,4.124,109.7,4.697,0.867,5.319,100.0255,-0.635,0.686,70.22,0,109.6,13.62,0.12,71.7
"2010-01-21 00:22:00",1610244,4.025,109,6.312,1.014,4.539,100.0252,-0.635,0.654,70.48,0,109.6,13.62,0.11,71.0
"2010-01-21 00:22:30",1610245,3.303,106.8,6.788,1.181,2.497,100.0258,-0.634,0.588,70.82,0,109.6,13.62,0.12,68.8
"2010-01-21 00:23:00",1610246,2.641,104.1,4.847,0.797,1.323,100.0269,-0.631,0.567,71.23,0,109.6,13.62,0.12,66.1
"2010-01-21 00:23:30",1610247,2.914,105,6.002,1.083,1.734,100.028,-0.628,0.501,71.61,0,109.6,13.62,0.12,67.0
"2010-01-21 00:24:00",1610248,3.559,112.6,5.89,1.194,3.776,100.0289,-0.626,0.666,72.19,0,109.6,13.62,0.12,74.6
"2010-01-21 00:24:30",1610249,4.184,114.3,6.823,0.998,5.147,100.0297,-0.624,0.662,72.5,0,109.5,13.63,0.13,76.3
"2010-01-21 00:25:00",1610250,4.241,110.8,6.207,0.878,5.403,100.0306,-0.622,0.682,72.76,0,109.6,13.63,0.13,72.8
"2010-01-21 00:25:30",1610251,3.336,110.1,7.865,1.271,3.288,100.032,-0.618,0.608,72.79,0,109.6,13.62,0.13,72.1
"2010-01-21 00:26:00",1610252,2.251,102.3,2.389,0.463,0.961,100.0294,-0.625,0.522,72.72,0,109.5,13.63,0.13,64.3
"2010-01-21 00:26:30",1610253,3.047,101.7,6.51,1.173,2.294,100.0258,-0.634,0.445,72.7,0,109.6,13.62,0.12,63.7
"2010-01-21 00:27:00",1610254,2.582,108.9,6.293,1.104,2.614,100.0184,-0.653,0.559,72.88,0,109.5,13.63,0.10,70.9
"2010-01-21 00:27:30",1610255,3.341,114.5,7.134,1.13,4.7,100.0116,-0.67,0.691,73.02,0,109.5,13.63,0.08,76.5
"2010-01-21 00:28:00",1610256,3.461,114.5,4.917,1.047,4.456,100.0048,-0.687,0.657,72.85,0,109.5,13.63,0.06,76.5
"2010-01-21 00:28:30",1610257,3.059,115,7.609,1.236,3.513,100.0006,-0.698,0.564,72.68,0,109.5,13.63,0.05,77.0
"2010-01-21 00:29:00",1610258,2.277,112.5,7.141,1.098,1.916,100,-0.7,0.533,72.46,0,109.5,13.63,0.05,74.5
"2010-01-21 00:29:30",1610259,2.024,113.9,4.662,0.928,1.09,100,-0.7,0.482,72.28,0,109.5,13.63,0.05,75.9
"2010-01-21 00:30:00",1610260,2.915,116.3,6.308,1.248,2.762,100,-0.7,0.388,71.98,0,109.5,13.64,0.05,78.3
"2010-01-21 00:30:30",1610261,2.399,115.1,6.983,1.09,2.923,100,-0.7,0.518,71.96,0,109.5,13.64,0.05,77.1
"2010-01-21 00:31:00",1610262,3.708,125.6,3.942,0.495,5.493,99.99886,-0.702,0.655,71.88,0,109.5,13.63,0.05,87.6
"2010-01-21 00:31:30",1610263,3.026,123.4,6.804,1.116,3.861,99.98754,-0.731,0.539,71.58,0,109.5,13.63,0.02,85.4
"2010-01-21 00:32:00",1610264,1.279,117.3,0.924,0.23,0.353,99.98301,-0.743,0.352,71.17,0,109.5,13.63,0.01,79.3
"2010-01-21 00:32:30",1610265,2.191,121.2,6.4,1.187,2.111,99.97706,-0.758,0.446,70.96,0,109.5,13.63,-0.01,83.2
"2010-01-21 00:33:00",1610266,2.229,119.8,6.569,1.233,2.728,99.968,-0.781,0.468,70.76,0,109.5,13.63,-0.03,81.8
"2010-01-21 00:33:30",1610267,1.187,107.9,0.715,0.025,1.11,99.96602,-0.786,0.359,70.52,0,109.5,13.66,-0.04,69.9
"2010-01-21 00:34:00",1610268,2.6,115.8,5.782,1.109,4.371,99.96602,-0.786,0.554,70.68,0,109.5,13.63,-0.04,77.8
"2010-01-21 00:34:30",1610269,2.738,114.1,5.831,1.175,4.463,99.96602,-0.786,0.536,70.62,0,109.5,13.63,-0.04,76.1
"2010-01-21 00:35:00",1610270,2.836,116.4,5.87,1.088,4.026,99.96602,-0.786,0.504,70.57,0,109.5,13.63,-0.04,78.4
"2010-01-21 00:35:30",1610271,1.076,107.7,2.836,0.057,0.237,99.96602,-0.786,0.306,70.36,0,109.5,13.67,-0.04,69.7
"2010-01-21 00:36:00",1610272,1.947,114.7,7.654,1.189,1.843,99.96545,-0.788,0.434,70.65,0,109.5,13.64,-0.04,76.7
"2010-01-21 00:36:30",1610273,0.908,111.2,2.84,0.042,0.949,99.96205,-0.796,0.388,70.74,0,109.5,13.67,-0.05,73.2
"2010-01-21 00:37:00",1610274,1.209,109.3,3.424,0.63,1.058,99.95583,-0.812,0.272,70.7,0,109.5,13.64,-0.06,71.3
"2010-01-21 00:37:30",1610275,2.256,114.7,5.509,1.159,3.84,99.94506,-0.84,0.522,71.1,0,109.5,13.64,-0.09,76.7
"2010-01-21 00:38:00",1610276,2.596,115.5,7.737,1.076,4.651,99.94279,-0.845,0.491,71.31,0,109.5,13.65,-0.10,77.5
"2010-01-21 00:38:30",1610277,2.123,108.9,9.38,1.192,2.694,99.93826,-0.857,0.403,71.38,0,109.5,13.65,-0.11,70.9
"2010-01-21 00:39:00",1610278,0.931,101.7,2.918,0.053,0.192,99.93487,-0.866,0.369,71.51,0,109.5,13.68,-0.12,63.7
"2010-01-21 00:39:30",1610279,1.84,110.9,5.509,1.229,1.478,99.93346,-0.869,0.295,71.62,0,109.5,13.64,-0.12,72.9
"2010-01-21 00:40:00",1610280,1.813,109.5,8.12,1.235,2.136,99.9343,-0.867,0.369,71.85,0,109.5,13.65,-0.12,71.5
"2010-01-21 00:40:30",1610281,0.743,96.1,3.317,0.037,0.979,99.93855,-0.856,0.243,71.91,0,109.5,13.68,-0.11,58.1
"2010-01-21 00:41:00",1610282,1.906,93,5.355,1.194,4.246,99.94166,-0.848,0.442,72.31,0,109.5,13.65,-0.10,55.0
"2010-01-21 00:41:30",1610283,2.771,98,5.873,0.695,5.647,99.94336,-0.844,0.473,72.47,0,109.5,13.65,-0.09,60.0
"2010-01-21 00:42:00",1610284,2.12,89.5,13.03,1.169,4.004,99.93883,-0.856,0.45,72.52,0,109.5,13.65,-0.11,51.5
"2010-01-21 00:42:30",1610285,0.684,58.35,7.558,0.87,-0.139,99.92325,-0.895,0.208,72.4,0,109.5,13.65,-0.15,20.3
"2010-01-21 00:43:00",1610286,0.195,56.24,12.03,0.06,-0.664,99.91673,-0.912,0.221,72.42,0,109.5,13.68,-0.16,18.2
"2010-01-21 00:43:30",1610287,1.342,52.94,15.24,1.233,1.306,99.92041,-0.902,0.349,72.56,0,109.5,13.65,-0.15,14.9
"2010-01-21 00:44:00",1610288,0.333,70.44,6.441,0.075,0.356,99.92154,-0.9,0.232,72.44,0,109.5,13.69,-0.15,32.4
"2010-01-21 00:44:30",1610289,0.524,68.09,8.83,0.065,0.438,99.92154,-0.9,0.186,72.37,0,109.5,13.69,-0.15,30.1
"2010-01-21 00:45:00",1610290,1.306,78.31,10.1,1.192,2.039,99.92324,-0.895,0.305,72.49,0,109.5,13.66,-0.15,40.3
"2010-01-21 00:45:30",1610291,2.285,75.55,6.863,1.135,4.199,99.91673,-0.912,0.376,72.6,0,109.5,13.66,-0.16,37.6
"2010-01-21 00:46:00",1610292,1.825,81.1,6.946,1.1,2.796,99.90652,-0.938,0.346,72.58,0,109.5,13.66,-0.19,43.1
"2010-01-21 00:46:30",1610293,1.766,82,7.463,1.202,2.371,99.90228,-0.949,0.27,72.59,0,109.5,13.65,-0.20,44.0
"2010-01-21 00:47:00",1610294,0.642,76.33,8.19,0.512,0.368,99.89378,-0.97,0.263,72.68,0,109.5,13.69,-0.22,38.3
"2010-01-21 00:47:30",1610295,1.565,76.74,6.025,1.238,1.525,99.89378,-0.97,0.177,72.7,0,109.5,13.65,-0.22,38.7
"2010-01-21 00:48:00",1610296,0.808,74.04,6.549,0.07,0.707,99.89463,-0.968,0.16,72.81,0,109.5,13.69,-0.22,36.0
"2010-01-21 00:48:30",1610297,1.854,61.01,6.745,1.244,2.017,99.89434,-0.969,0.146,72.92,0,109.5,13.65,-0.22,23.0
"2010-01-21 00:49:00",1610298,2.429,75.46,7.654,1.182,3.808,99.88103,-1.003,0.287,73.16,0,109.5,13.65,-0.25,37.5
"2010-01-21 00:49:30",1610299,1.841,73.61,7.556,1.216,2.48,99.86942,-1.032,0.274,73.27,0,109.5,13.65,-0.28,35.6
"2010-01-21 00:50:00",1610300,1.97,64.55,5.905,1.188,2.216,99.86347,-1.048,0.228,73.35,0,109.5,13.65,-0.30,26.6
"2010-01-21 00:50:30",1610301,1.521,66.22,7.426,1.136,1.061,99.86403,-1.046,0.071,73.28,0,109.5,13.65,-0.30,28.2
"2010-01-21 00:51:00",1610302,1.93,67.61,5.585,1.243,1.863,99.86403,-1.046,0.197,73.54,0,109.5,13.65,-0.30,29.6
"2010-01-21 00:51:30",1610303,0.828,61.19,5.957,0.17,0.386,99.86403,-1.046,0.028,73.54,0,109.5,13.69,-0.30,23.2
"2010-01-21 00:52:00",1610304,1.568,69.83,4.41,1.243,2.177,99.86347,-1.048,0.032,73.63,0,109.5,13.65,-0.30,31.8
"2010-01-21 00:52:30",1610305,1.82,77.06,5.721,1.242,3.251,99.85299,-1.074,0.204,73.86,0,109.5,13.66,-0.33,39.1
"2010-01-21 00:53:00",1610306,1.715,75.69,6.845,1.228,2.655,99.83514,-1.12,0.134,73.84,0,109.5,13.66,-0.37,37.7
"2010-01-21 00:53:30",1610307,1.303,72.68,4.639,1.102,1.149,99.83005,-1.133,0.049,73.81,0,109.5,13.66,-0.38,34.7
"2010-01-21 00:54:00",1610308,1.669,73.68,7.627,1.226,2.054,99.83005,-1.133,0.135,73.96,0,109.5,13.66,-0.38,35.7
"2010-01-21 00:54:30",1610309,1.501,67.3,5.694,1.155,1.877,99.83005,-1.133,0.082,73.96,0,109.5,13.67,-0.38,29.3
"2010-01-21 00:55:00",1610310,1.35,66.79,7.137,1.139,1.779,99.83005,-1.133,0.11,74.05,0,109.5,13.67,-0.38,28.8
"2010-01-21 00:55:30",1610311,0.814,54.21,4.796,0.654,1.147,99.83005,-1.133,0.094,74.08,0,109.4,13.67,-0.38,16.2
"2010-01-21 00:56:00",1610312,1.469,52.22,7.692,1.152,1.504,99.82693,-1.141,-0.027,74.03,0,109.5,13.67,-0.39,14.2
"2010-01-21 00:56:30",1610313,1.991,60.54,7.911,1.259,3.281,99.80908,-1.186,0.171,74.29,0,109.4,13.67,-0.44,22.5
"2010-01-21 00:57:00",1610314,1.244,51.01,7.634,1.097,1.238,99.79662,-1.218,-0.06,74.11,0,109.5,13.67,-0.47,13.0
"2010-01-21 00:57:30",1610315,1.096,59.02,7.673,1.054,1.3,99.79605,-1.219,0.091,74.3,0,109.5,13.67,-0.47,21.0
"2010-01-21 00:58:00",1610316,1.848,63.46,6.417,1.251,2.162,99.79605,-1.219,0.04,74.32,0,109.5,13.67,-0.47,25.5
"2010-01-21 00:58:30",1610317,1.42,62.71,6.189,1.212,1.6,99.79605,-1.219,0.041,74.31,0,109.5,13.67,-0.47,24.7
"2010-01-21 00:59:00",1610318,0.539,62.78,4.513,0.042,0.136,99.79605,-1.219,-0.099,74.22,0,109.5,13.7,-0.47,24.8
"2010-01-21 00:59:30",1610319,0.574,63.83,2.921,0.222,0.269,99.79605,-1.219,-0.024,74.33,0,109.5,13.67,-0.47,25.8
"2010-01-21 01:00:00",1610320,1.672,72.26,7.046,1.245,2.54,99.79577,-1.22,-0.069,74.32,0,109.5,13.67,-0.47,34.3
"2010-01-21 01:00:30",1610321,1.455,66.02,4.794,1.163,1.89,99.79265,-1.228,-0.016,74.39,0,109.5,13.67,-0.48,28.0
"2010-01-21 01:01:00",1610322,1.252,65.24,6.163,1.075,1.517,99.78161,-1.256,0.006,74.49,0,109.5,13.67,-0.51,27.2
"2010-01-21 01:01:30",1610323,1.904,66.45,6.818,1.223,2.312,99.76772,-1.292,-0.055,74.46,0,109.5,13.67,-0.54,28.4
"2010-01-21 01:02:00",1610324,2.157,66.44,6.281,1.178,2.898,99.7632,-1.303,0.024,74.59,0,109.5,13.67,-0.56,28.4
"2010-01-21 01:02:30",1610325,0.617,63.57,2.621,0.036,0.462,99.76207,-1.306,-0.049,74.57,0,109.5,13.7,-0.56,25.6
"2010-01-21 01:03:00",1610326,1.656,73.6,7.069,1.246,2.264,99.76207,-1.306,-0.09,74.59,0,109.5,13.67,-0.56,35.6
"2010-01-21 01:03:30",1610327,0.806,72.04,5.57,0.746,1.411,99.76207,-1.306,-0.021,74.76,0,109.5,13.67,-0.56,34.0
"2010-01-21 01:04:00",1610328,1.277,78.75,4.093,1.158,1.654,99.76207,-1.306,-0.203,74.69,0,109.5,13.67,-0.56,40.8
"2010-01-21 01:04:30",1610329,0.858,84.3,5.967,0.847,1.951,99.76207,-1.306,-0.055,74.94,0,109.4,13.67,-0.56,46.3
"2010-01-21 01:05:00",1610330,2.026,93.4,7.23,1.203,4.09,99.76234,-1.305,-0.009,75.15,0,109.5,13.67,-0.56,55.4
"2010-01-21 01:05:30",1610331,1.881,94.2,8.56,1.216,3.901,99.76065,-1.31,0.049,75.37,0,109.4,13.67,-0.56,56.2
"2010-01-21 01:06:00",1610332,1.585,100.3,5.874,1.229,3.501,99.75555,-1.323,0.027,75.51,0,109.5,13.67,-0.58,62.3
"2010-01-21 01:06:30",1610333,1.044,98.6,5.68,1.052,1.878,99.74875,-1.34,-0.222,75.43,0,109.4,13.67,-0.59,60.6
"2010-01-21 01:07:00",1610334,1.425,100,6.343,1.217,3.05,99.74676,-1.345,-0.065,75.7,0,109.5,13.67,-0.60,62.0
"2010-01-21 01:07:30",1610335,0.686,93,2.348,0.626,0.981,99.74619,-1.347,-0.15,75.78,0,109.5,13.67,-0.60,55.0
"2010-01-21 01:08:00",1610336,0.518,91.6,1.135,0.004,0.713,99.74562,-1.348,-0.224,75.81,0,109.5,13.7,-0.60,53.6
"2010-01-21 01:08:30",1610337,0.47,90,1,0.036,0.615,99.74052,-1.361,-0.212,75.92,0,109.5,13.7,-0.61,52.0
"2010-01-21 01:09:00",1610338,1.806,97.5,6.039,1.23,3.912,99.73514,-1.375,0.019,76.26,0,109.4,13.68,-0.63,59.5
"2010-01-21 01:09:30",1610339,2.231,97.5,5.968,1.11,4.146,99.73626,-1.372,-0.055,76.26,0,109.5,13.68,-0.62,59.5
"2010-01-21 01:10:00",1610340,1.078,89.5,4.804,1.106,2.798,99.73598,-1.373,-0.033,76.38,0,109.4,13.68,-0.63,51.5
"2010-01-21 01:10:30",1610341,0.566,82.1,3.243,0.659,1.148,99.7374,-1.369,-0.24,76.21,0,109.4,13.68,-0.62,44.1
"2010-01-21 01:11:00",1610342,1.396,81,6.382,1.2,2.338,99.7388,-1.365,-0.089,76.41,0,109.4,13.68,-0.62,43.0
"2010-01-21 01:11:30",1610343,0.277,73.45,1.091,0.037,-0.026,99.73853,-1.366,-0.257,76.27,0,109.4,13.71,-0.62,35.4
"2010-01-21 01:12:00",1610344,0.238,70.53,1.008,0.019,-0.235,99.74022,-1.362,-0.251,76.29,0,109.4,13.71,-0.61,32.5
"2010-01-21 01:12:30",1610345,0.147,68.4,0.702,0.026,-0.18,99.74277,-1.355,-0.263,76.31,0,109.4,13.72,-0.61,30.4
"2010-01-21 01:13:00",1610346,0.113,66.87,1.381,0,0.109,99.73994,-1.363,-0.27,76.31,0,109.4,13.72,-0.62,28.9
"2010-01-21 01:13:30",1610347,1.494,71.78,6.136,1.191,3.275,99.74277,-1.355,-0.095,76.51,0,109.5,13.68,-0.61,33.8
"2010-01-21 01:14:00",1610348,1.495,68.05,6.258,1.203,3.509,99.7439,-1.352,-0.073,76.54,0,109.4,13.69,-0.61,30.1
"2010-01-21 01:14:30",1610349,1.066,63.31,6.573,1.236,2.207,99.74361,-1.353,-0.184,76.42,0,109.4,13.68,-0.61,25.3
"2010-01-21 01:15:00",1610350,0.827,57.75,5.371,1.17,1.699,99.74446,-1.351,-0.138,76.46,0,109.4,13.68,-0.60,19.8
"2010-01-21 01:15:30",1610351,1.173,56.72,5.492,1.238,1.816,99.74615,-1.347,-0.213,76.41,0,109.4,13.68,-0.60,18.7
"2010-01-21 01:16:00",1610352,0.562,55.5,6.376,1.012,0.758,99.74361,-1.353,-0.136,76.46,0,109.5,13.68,-0.61,17.5
"2010-01-21 01:16:30",1610353,0.038,55.86,0.689,0,-0.709,99.73708,-1.37,-0.301,76.26,0,109.5,13.72,-0.62,17.9
"2010-01-21 01:17:00",1610354,0.038,55.43,0.672,0,-0.767,99.72944,-1.389,-0.3,76.23,0,109.5,13.72,-0.64,17.4
"2010-01-21 01:17:30",1610355,0.038,50.56,2.528,0,-0.639,99.71669,-1.422,-0.313,76.2,0,109.4,13.72,-0.67,12.6
"2010-01-21 01:18:00",1610356,0.038,45.29,1.248,0,-0.841,99.71753,-1.42,-0.31,76.16,0,109.4,13.72,-0.67,7.3
"2010-01-21 01:18:30",1610357,0.008,39.49,3.358,0.038,-0.375,99.72007,-1.413,-0.32,76.1,0,109.4,13.73,-0.67,1.5
"2010-01-21 01:19:00",1610358,0.9,31.93,10.08,1.185,2.333,99.71978,-1.414,-0.243,76.16,0,109.4,13.69,-0.67,353.9
"2010-01-21 01:19:30",1610359,1.415,28.69,6.794,1.212,3.74,99.72007,-1.413,-0.144,76.22,0,109.4,13.69,-0.67,350.7
"2010-01-21 01:20:00",1610360,1.373,12.89,13.33,1.202,3.314,99.71978,-1.414,-0.084,76.24,0,109.4,13.69,-0.67,334.9
"2010-01-21 01:20:30",1610361,1.023,349.2,8.91,1.174,1.727,99.72063,-1.412,-0.279,75.98,0,109.4,13.68,-0.66,311.2
"2010-01-21 01:21:00",1610362,0.508,345.1,9.76,1.021,0.699,99.7212,-1.41,-0.18,76.05,0,109.4,13.68,-0.66,307.1
"2010-01-21 01:21:30",1610363,0.634,332.2,7.313,1.055,-0.3,99.7212,-1.41,-0.361,75.83,0,109.5,13.68,-0.66,294.2
"2010-01-21 01:22:00",1610364,0.095,328.3,1.347,0.028,-1.48,99.72318,-1.405,-0.357,75.8,0,109.4,13.72,-0.66,290.3
"2010-01-21 01:22:30",1610365,0.114,326.4,0.955,0.002,-1.421,99.71666,-1.422,-0.366,75.76,0,109.5,13.72,-0.67,288.4
"2010-01-21 01:23:00",1610366,0.127,322.9,1.451,0.026,-1.274,99.7008,-1.462,-0.379,75.72,0,109.5,13.72,-0.72,284.9
"2010-01-21 01:23:30",1610367,0.174,318.1,1.228,0.005,-0.972,99.69116,-1.487,-0.362,75.7,0,109.5,13.72,-0.74,280.1
"2010-01-21 01:24:00",1610368,1.125,319.6,6.832,1.201,1.305,99.68833,-1.494,-0.3,75.72,0,109.4,13.69,-0.75,281.6
"2010-01-21 01:24:30",1610369,1.09,317.3,6.367,1.205,1.817,99.68833,-1.494,-0.27,75.76,0,109.5,13.69,-0.75,279.3
"2010-01-21 01:25:00",1610370,0.804,311.9,5.134,1.077,1.201,99.68974,-1.49,-0.261,75.75,0,109.5,13.69,-0.74,273.9
"2010-01-21 01:25:30",1610371,2.01,314.5,5.597,1.116,3.858,99.68918,-1.492,-0.171,75.87,0,109.4,13.69,-0.75,276.5
"2010-01-21 01:26:00",1610372,1.414,309,7.017,1.265,2.011,99.68946,-1.491,-0.323,75.73,0,109.4,13.69,-0.74,271.0
"2010-01-21 01:26:30",1610373,0.238,299.9,1.486,0.004,-0.818,99.68861,-1.493,-0.336,75.75,0,109.4,13.73,-0.75,261.9
"2010-01-21 01:27:00",1610374,0.252,297.3,2.055,0.024,-1.237,99.68918,-1.492,-0.424,75.66,0,109.4,13.72,-0.75,259.3
"2010-01-21 01:27:30",1610375,0.258,296.8,1.738,0.033,-1.129,99.68861,-1.493,-0.447,75.69,0,109.5,13.73,-0.75,258.8
"2010-01-21 01:28:00",1610376,1.115,304.2,5.775,1.199,0.628,99.67756,-1.522,-0.402,75.81,0,109.5,13.69,-0.77,266.2
"2010-01-21 01:28:30",1610377,1.211,304.8,5.568,1.212,1.383,99.67132,-1.537,-0.314,75.99,0,109.5,13.7,-0.79,266.8
"2010-01-21 01:29:00",1610378,0.312,299.4,2.497,0.027,0.128,99.66933,-1.542,-0.468,75.96,0,109.5,13.7,-0.80,261.4
"2010-01-21 01:29:30",1610379,0.523,297.1,3.029,0.664,0.778,99.65914,-1.568,-0.424,76.12,0,109.4,13.7,-0.82,259.1
"2010-01-21 01:30:00",1610380,2.374,304.2,5.181,0.952,4.654,99.65603,-1.576,-0.198,76.5,0,109.5,13.7,-0.83,266.2
"2010-01-21 01:30:30",1610381,2.066,303.7,6.174,1.109,3.267,99.65659,-1.575,-0.253,76.55,0,109.5,13.69,-0.83,265.7
"2010-01-21 01:31:00",1610382,0.255,295.1,0.835,0.036,-0.585,99.65829,-1.571,-0.454,76.49,0,109.5,13.73,-0.82,257.1
"2010-01-21 01:31:30",1610383,0.252,295.1,1.471,0.036,-1.239,99.65942,-1.568,-0.488,76.58,0,109.5,13.73,-0.82,257.1
"2010-01-21 01:32:00",1610384,0.614,298.8,5.237,0.857,-0.676,99.65857,-1.57,-0.489,76.68,0,109.5,13.7,-0.82,260.8
"2010-01-21 01:32:30",1610385,0.883,304.5,6.298,1.048,0.512,99.65629,-1.576,-0.389,76.91,0,109.5,13.7,-0.83,266.5
"2010-01-21 01:33:00",1610386,0.788,302.3,5.951,0.909,0.541,99.64808,-1.597,-0.5,76.91,0,109.5,13.7,-0.85,264.3
"2010-01-21 01:33:30",1610387,0.423,299.8,1.492,0.026,0.018,99.63929,-1.619,-0.518,76.97,0,109.5,13.73,-0.87,261.8
"2010-01-21 01:34:00",1610388,1.622,306.9,5.548,1.259,2.61,99.63277,-1.636,-0.312,77.25,0,109.5,13.7,-0.89,268.9
"2010-01-21 01:34:30",1610389,2.389,311.6,5.164,1.016,3.947,99.62711,-1.65,-0.241,77.41,0,109.5,13.7,-0.90,273.6
"2010-01-21 01:35:00",1610390,1.046,302.3,5.207,1.012,0.815,99.62569,-1.654,-0.394,77.33,0,109.4,13.7,-0.91,264.3
"2010-01-21 01:35:30",1610391,0.496,301.2,1.829,0.049,-0.587,99.62598,-1.653,-0.534,77.21,0,109.5,13.73,-0.91,263.2
"2010-01-21 01:36:00",1610392,0.75,300.5,1.185,0.496,-0.593,99.62598,-1.653,-0.535,77.28,0,109.4,13.7,-0.91,262.5
"2010-01-21 01:36:30",1610393,1.733,304.8,6.667,1.222,1.788,99.62598,-1.653,-0.401,77.46,0,109.4,13.7,-0.91,266.8
"2010-01-21 01:37:00",1610394,0.83,300.9,0.916,0.039,0.252,99.62598,-1.653,-0.47,77.46,0,109.4,13.73,-0.91,262.9
"2010-01-21 01:37:30",1610395,1.743,304.7,5.541,1.164,1.467,99.62598,-1.653,-0.461,77.52,0,109.5,13.7,-0.91,266.7
"2010-01-21 01:38:00",1610396,2.805,308.4,6.146,1.131,3.612,99.62598,-1.653,-0.304,77.72,0,109.5,13.7,-0.91,270.4
"2010-01-21 01:38:30",1610397,2.616,308.8,5.624,1.205,3.078,99.62598,-1.653,-0.346,77.7,0,109.4,13.69,-0.91,270.8
"2010-01-21 01:39:00",1610398,1.965,307.5,6.416,1.138,1.616,99.62598,-1.653,-0.434,77.57,0,109.4,13.69,-0.91,269.5
"2010-01-21 01:39:30",1610399,2.104,310,6.27,1.186,1.377,99.62598,-1.653,-0.434,77.55,0,109.4,13.69,-0.91,272.0
"2010-01-21 01:40:00",1610400,2.024,310.4,6.336,1.162,1.735,99.62598,-1.653,-0.443,77.5,0,109.4,13.69,-0.91,272.4
"2010-01-21 01:40:30",1610401,1.368,307.4,2.307,0.613,0.191,99.62598,-1.653,-0.587,77.29,0,109.4,13.69,-0.91,269.4
"2010-01-21 01:41:00",1610402,2.413,317.3,7.814,1.242,2.854,99.62598,-1.653,-0.367,77.44,0,109.4,13.7,-0.91,279.3
"2010-01-21 01:41:30",1610403,3.054,323.6,6.155,1.112,4.078,99.62598,-1.653,-0.318,77.41,0,109.4,13.7,-0.91,285.6
"2010-01-21 01:42:00",1610404,2.156,319.4,6.414,1.233,2.228,99.62598,-1.653,-0.481,77.18,0,109.4,13.7,-0.91,281.4
"2010-01-21 01:42:30",1610405,2.514,319.9,6.28,1.23,3.181,99.62598,-1.653,-0.396,77.14,0,109.4,13.7,-0.91,281.9
"2010-01-21 01:43:00",1610406,1.545,310.8,6.13,0.935,0.494,99.62598,-1.653,-0.491,76.9,0,109.4,13.7,-0.91,272.8
"2010-01-21 01:43:30",1610407,2.042,310.1,6.925,1.203,1.696,99.62598,-1.653,-0.547,76.7,0,109.4,13.7,-0.91,272.1
"2010-01-21 01:44:00",1610408,1.075,304.3,2.678,0.235,0.651,99.62598,-1.653,-0.53,76.63,0,109.4,13.73,-0.91,266.3
"2010-01-21 01:44:30",1610409,2.813,311.2,5.934,1.108,3.425,99.62598,-1.653,-0.404,76.7,0,109.4,13.7,-0.91,273.2
"2010-01-21 01:45:00",1610410,2.539,309.4,6.528,1.19,3.238,99.62598,-1.653,-0.395,76.68,0,109.4,13.7,-0.91,271.4
"2010-01-21 01:45:30",1610411,2.444,306.5,6.765,1.224,3.14,99.62598,-1.653,-0.363,76.7,0,109.4,13.7,-0.91,268.5
"2010-01-21 01:46:00",1610412,2.489,303.9,6.749,1.18,2.46,99.62598,-1.653,-0.497,76.54,0,109.4,13.7,-0.91,265.9
"2010-01-21 01:46:30",1610413,2.159,300.8,5.987,1.213,1.928,99.62598,-1.653,-0.474,76.61,0,109.4,13.7,-0.91,262.8